Regional Weather Roundup
Issued by NWS Midland/Odessa, TX

Skip options and go directly to product.
Home | Oldest Version | Next Version | Current Version | All | Text Only | Save Text | Print | Product List | Glossary On

Skip product version selection by date and time.   
882
ASUS44 KMAF 291602
RWRMAF
MIDLAND AREA WEATHER ROUNDUP
NATIONAL WEATHER SERVICE MIDLAND TX
1100 AM CDT WED OCT 29 2014

...IN SOUTHWEST TEXAS AND SOUTHEAST NEW MEXICO...

CITY           SKY/WX    TMP DP  RH WIND       PRES   REMARKS
ALPINE         SUNNY     61  42  50 CALM      30.34R
ANDREWS        FAIR      61  40  47 SE9G16    30.28S
ARTESIA        NOT AVBL
BIG SPRING     SUNNY     65  40  40 E9        30.30R
CARLSBAD       SUNNY     58  44  60 SE6       30.27R
DRYDEN           N/A     69  55  60 NE10      30.20S
FORT STOCKTON  CLOUDY    61  45  55 CALM      30.26S
GUAD PASS      NOT AVBL
HOBBS          SUNNY     59  39  47 SE10      30.29S
MARFA          SUNNY     64  48  55 E3        30.31R
MIDLAND AIRPK  SUNNY     62  42  47 E7        30.28R
MIDLAND INTL   PTSUNNY   63  42  46 E12       30.27R
ODESSA         MOSUNNY   63  41  44 E15       30.27S
PECOS          SUNNY     60  45  57 E3        30.26S
PRESIDIO       FAIR      72  50  45 E7        30.20S
SEMINOLE       SUNNY     59  40  49 SE8       30.29S
SNYDER         SUNNY     61  42  49 E9        30.27F
WINK           SUNNY     64  42  44 SE10      30.25S
$$
...OTHER STATIONS IN TEXAS...

CITY           SKY/WX    TMP DP  RH WIND       PRES   REMARKS
ABILENE        SUNNY     63  43  48 NW3       30.27R
AMARILLO       SUNNY     56  36  47 S16       30.28F
AUSTIN         CLOUDY    71  63  75 NE12      30.17R
BROWNSVILLE    CLOUDY    81  72  74 VRB3      30.10R
CORPUS CHRISTI MOSUNNY   82  68  62 E3        30.12R
DALLAS FTW     SUNNY     66  50  56 NE8       30.23S
DEL RIO        CLOUDY    72  64  76 CALM      30.15S
EL PASO        MOSUNNY   63  41  44 NE6       30.23R
HOUSTON INT    MOSUNNY   80  67  64 VRB6      30.12S
LUBBOCK        SUNNY     60  36  40 SE12      30.28S
SAN ANGELO     MOSUNNY   67  47  48 NE9       30.24S
SAN ANTONIO    PTSUNNY   77  64  64 NE3       30.17R
WACO           CLOUDY    66  57  72 N8        30.21R
WICHITA FALLS  NOT AVBL
$$
...OTHER LOCATIONS IN NEW MEXICO...

CITY           SKY/WX    TMP DP  RH WIND       PRES   REMARKS
ALAMAGORDO     NOT AVBL
ALBUQUERQUE    SUNNY     54  20  26 N9        30.32R
CANNON AFB     SUNNY     55  36  49 S13       30.28S
CLOVIS         SUNNY     55  36  47 S14       30.31S
HOLLOMAN AFB   SUNNY     62  40  44 CALM      30.24S
ROSWELL        SUNNY     57  43  59 S9        30.28R
RUIDOSO        SUNNY     59  32  36 NW3       30.36S
SANTA FE       SUNNY     50  12  21 N14       30.32S
TRUTH OR CONSE SUNNY     60  38  43 NE10      30.27R
TUCUMCARI      SUNNY     54  39  57 W7        30.26S
$$

USA.gov is the U.S. government's official web portal to all federal, state and local government web resources and services.